TimePST,TemperatureF,Dew PointF,Humidity,Sea Level PressureIn,VisibilityMPH,Wind Direction,Wind SpeedMPH,Gust SpeedMPH,PrecipitationIn,Events,Conditions,WindDirDegrees,DateUTC
12:53 AM,39.9,21.9,49,30.33,10.0,Calm,Calm,-,N/A,,Clear,0,2013-01-16 08:53:00
1:53 AM,39.9,21.9,49,30.33,10.0,Calm,Calm,-,N/A,,Clear,0,2013-01-16 09:53:00
2:53 AM,39.0,21.9,50,30.33,10.0,Calm,Calm,-,N/A,,Clear,0,2013-01-16 10:53:00
3:53 AM,37.9,23.0,55,30.32,10.0,Calm,Calm,-,N/A,,Clear,0,2013-01-16 11:53:00
4:53 AM,37.0,23.0,57,30.31,10.0,North,6.9,-,N/A,,Clear,360,2013-01-16 12:53:00
5:53 AM,39.0,23.0,53,30.30,10.0,Calm,Calm,-,N/A,,Clear,0,2013-01-16 13:53:00
6:53 AM,37.0,24.1,59,30.31,10.0,Calm,Calm,-,N/A,,Clear,0,2013-01-16 14:53:00
7:53 AM,42.1,25.0,51,30.33,10.0,North,3.5,-,N/A,,Clear,350,2013-01-16 15:53:00
8:53 AM,51.1,25.0,36,30.33,10.0,WSW,3.5,-,N/A,,Clear,240,2013-01-16 16:53:00
9:53 AM,57.0,27.0,32,30.31,10.0,Calm,Calm,-,N/A,,Clear,0,2013-01-16 17:53:00
10:53 AM,61.0,24.1,24,30.28,10.0,Variable,4.6,-,N/A,,Clear,0,2013-01-16 18:53:00
11:53 AM,63.0,21.9,21,30.23,10.0,SE,5.8,-,N/A,,Clear,130,2013-01-16 19:53:00
12:53 PM,64.9,24.1,21,30.19,10.0,South,5.8,-,N/A,,Clear,180,2013-01-16 20:53:00
1:53 PM,66.9,24.1,20,30.17,10.0,SSE,5.8,-,N/A,,Clear,150,2013-01-16 21:53:00
2:53 PM,66.9,24.1,20,30.15,10.0,Variable,4.6,-,N/A,,Clear,0,2013-01-16 22:53:00
3:53 PM,64.9,28.0,25,30.15,10.0,South,6.9,-,N/A,,Clear,180,2013-01-16 23:53:00
4:53 PM,62.1,26.1,25,30.16,10.0,SSW,3.5,-,N/A,,Clear,200,2013-01-17 00:53:00
5:53 PM,59.0,28.0,31,30.17,10.0,Calm,Calm,-,N/A,,Clear,0,2013-01-17 01:53:00
6:53 PM,54.0,30.0,40,30.16,10.0,Calm,Calm,-,N/A,,Clear,0,2013-01-17 02:53:00
7:53 PM,53.1,28.0,38,30.16,10.0,Calm,Calm,-,N/A,,Clear,0,2013-01-17 03:53:00
8:53 PM,51.1,28.0,41,30.14,10.0,Calm,Calm,-,N/A,,Clear,0,2013-01-17 04:53:00
9:53 PM,48.9,28.0,44,30.12,10.0,Calm,Calm,-,N/A,,Clear,0,2013-01-17 05:53:00
10:53 PM,48.9,28.0,44,30.12,10.0,East,3.5,-,N/A,,Clear,100,2013-01-17 06:53:00
11:53 PM,46.9,27.0,46,30.11,10.0,NNW,4.6,-,N/A,,Clear,340,2013-01-17 07:53:00